Flag for Germany Weather past 2 weeks in Radolfzell am Bodensee, Baden-Württemberg, Germany

Now
62 °F

Fog.


Feels Like: 62 °F
Forecast: 56 / 70 °F
Wind: 1 mph from Northeast

Location: Konstanz

Current Time: Jul 28, 2014 at 7:00:09 AM

Latest Report: Jul 28, 2014 at 6:00 AM


Visibility: 4 mi

Pressure: 29.93 "Hg

Humidity: 96%

Dew point: 61 °F

Location of Radolfzell am BodenseeLocation

Historic Weather in Radolfzell am Bodensee — Graph

°F

Radolfzell am Bodensee temperature yesterday

Maximum temperature yesterday: 69 °F (at 5:00 PM)
Minimum temperature yesterday: 60 °F (at 6:00 AM)
Average temperature yesterday: 63 °F

Past Weeks' High & Low Weather Summary

 TemperatureHumidityPressure
High91 °F (Jul 19, 6:00 PM)99% (Jul 23, 4:00 AM)30.19 "Hg (Jul 23, 4:00 AM)
Low58 °F (Jul 13, 6:00 AM)14% (Jul 18, 5:00 PM)29.78 "Hg (Jul 20, 4:00 AM)
Average69 °F71%29.96 "Hg
* Reported Jul 13 6:00 AM — Jul 28 6:00 AM, Radolfzell am Bodensee, Weather by CustomWeather, © 2014

Note: Actual official high and low records may vary slightly from our data, if they occured in-between our weather recording intervals... More about our weather records

Advertising

Radolfzell am Bodensee weather history for previous 24 hours

 ConditionsComfort  
Time TempWeatherWind HumidityBarometerVisibility
6:00 AM
Jul 28
62 °FFog.1 mph96%29.93 "Hg4 mi
5:00 AM62 °FFog.1 mph96%29.94 "Hg3 mi
4:00 AM62 °FFog.1 mph96%29.95 "Hg3 mi
3:00 AM62 °FOvercast.No wind96%29.97 "Hg6 mi
2:00 AM63 °FOvercast.1 mph96%29.98 "Hg5 mi
1:00 AM64 °FLight rain. Passing clouds.1 mph96%30.00 "Hg5 mi
12:00 AM64 °FOvercast.1 mph92%30.01 "Hg10 mi
11:00 PM
Jul 27
65 °FOvercast.1 mph91%30.01 "Hg10 mi
10:00 PM66 °FOvercast.1 mph87%30.01 "Hg13 mi
9:00 PM66 °FOvercast.1 mph87%30.01 "Hg19 mi
8:00 PM67 °FOvercast.1 mph81%30.00 "Hg19 mi
7:00 PM68 °FOvercast.1 mph74%30.00 "Hg16 mi
6:00 PM68 °FOvercast.2 mph72%29.99 "Hg19 mi
5:00 PM69 °FOvercast.2 mph74%29.99 "Hg12 mi
4:00 PM66 °FOvercast.2 mph83%30.02 "Hg12 mi
3:00 PM64 °FLight rain. Overcast.3 mph89%30.04 "Hg7 mi
2:00 PM63 °FOvercast.2 mph90%30.04 "Hg10 mi
1:00 PM63 °FLight rain. Overcast.2 mph91%30.04 "Hg6 mi
12:00 PM63 °FLight rain. Overcast.3 mph91%30.03 "Hg6 mi
11:00 AM62 °FLight rain. Overcast.2 mph93%30.03 "Hg7 mi
10:00 AM62 °FLight rain. Overcast.1 mph93%30.03 "Hg6 mi
9:00 AM61 °FLight rain. Low clouds.3 mph96%30.03 "Hg5 mi
8:00 AM61 °FRain. Overcast.2 mph95%30.02 "Hg4 mi
7:00 AM60 °FLight rain. Overcast.1 mph95%30.01 "Hg6 mi
Weather by CustomWeather, © 2014

See weather overviewHow to use our weather pages